Weather History for KBTM - September, 2014

Change the Weather History Date:

Sunday, September 14, 2014

  Actual Average Record
Temperature  
Mean Temperature 50 °F 53 °F  
Max Temperature 70 °F 69 °F 87 °F (1990)
Min Temperature 30 °F 36 °F 21 °F (1970)
Degree Days  
Heating Degree Days 15 12  
Month to date heating degree days 221 140  
Since 1 July heating degree days 384 368  
Cooling Degree Days 0 0  
Month to date cooling degree days 0 0  
Year to date cooling degree days 77 79  
Moisture  
Dew Point 30 °F    
Average Humidity 56    
Maximum Humidity 92    
Minimum Humidity 20    
Precipitation  
Precipitation 0.00 in 0.03 in 1.08 in (1966)
Month to date precipitation 0.06 0.51  
Year to date precipitation 11.53 10.39  
Sea Level Pressure  
Sea Level Pressure 30.08 in    
Wind  
Wind Speed 5 mph (South)    
Max Wind Speed 12 mph    
Max Gust Speed 15 mph    
Visibility 10 miles    
Events      
T = Trace of Precipitation, MM = Missing Value Source: NWS Daily Summary

Daily Weather History Graph

Daily Weather History Graph

Search for Another Location

Airport or City:

Trip Planner

Search our weather history database for the weather conditions in past years. The results will help you decide how hot, cold, wet, or windy it might be!

Date:

Astronomy

Sep. 14, 2014 Rise Set
Actual Time 7:07 AM MDT 7:43 PM MDT
Civil Twilight 6:36 AM MDT 8:13 PM MDT
Nautical Twilight 6:01 AM MDT 8:48 PM MDT
Astronomical Twilight 5:24 AM MDT 9:25 PM MDT
Moon 11:20 PM MDT (9/14) 1:35 PM MDT (9/14)
Length of Visible Light 13h 36m
Length of Day
12h 36m
Waning Gibbous, 63% of the Moon is Illuminated
Sep 14
Waning Gibbous
Sep 15
Last Quarter
Sep 24
New
Oct 1
First Quarter
Oct 8
Full

Hourly Weather History & Observations

Time (MDT) Temp. Windchill Dew Point Humidity Pressure Visibility Wind Dir Wind Speed Gust Speed Precip Events Conditions
12:53 AM 36.0 °F 32.1 °F 30.0 °F 79% 30.06 in 10.0 mi SE 4.6 mph - N/A   Clear
1:53 AM 35.1 °F 31.0 °F 30.0 °F 82% 30.05 in 10.0 mi SE 4.6 mph - N/A   Clear
2:53 AM 33.1 °F 28.7 °F 28.9 °F 85% 30.04 in 10.0 mi SSE 4.6 mph - N/A   Clear
3:53 AM 32.0 °F 27.5 °F 28.0 °F 85% 30.04 in 10.0 mi SSE 4.6 mph - N/A   Clear
4:53 AM 32.0 °F 28.7 °F 28.0 °F 85% 30.04 in 10.0 mi ESE 3.5 mph - N/A   Clear
5:53 AM 30.0 °F 24.1 °F 27.0 °F 88% 30.05 in 10.0 mi SE 5.8 mph - N/A   Clear
6:53 AM 30.9 °F - 27.0 °F 85% 30.08 in 10.0 mi Calm Calm - N/A   Clear
7:53 AM 30.9 °F 27.5 °F 28.0 °F 89% 30.12 in 10.0 mi SE 3.5 mph - N/A   Clear
8:53 AM 37.0 °F - 30.9 °F 79% 30.12 in 10.0 mi Calm Calm - N/A   Clear
9:53 AM 42.1 °F - 33.1 °F 70% 30.13 in 10.0 mi Calm Calm - N/A   Clear
10:53 AM 48.9 °F - 33.1 °F 54% 30.12 in 10.0 mi Calm Calm - N/A   Clear
11:53 AM 55.9 °F - 34.0 °F 44% 30.09 in 10.0 mi Calm Calm - N/A   Clear
12:53 PM 63.0 °F - 28.0 °F 27% 30.06 in 10.0 mi Variable 4.6 mph - N/A   Clear
1:53 PM 66.0 °F - 28.0 °F 24% 30.05 in 10.0 mi NNW 3.5 mph - N/A   Clear
2:53 PM 69.1 °F - 27.0 °F 21% 30.04 in 10.0 mi NW 8.1 mph - N/A   Clear
3:53 PM 70.0 °F - 28.9 °F 22% 30.03 in 10.0 mi NW 5.8 mph - N/A   Clear
4:53 PM 70.0 °F - 28.9 °F 22% 30.04 in 10.0 mi West 8.1 mph - N/A   Clear
5:53 PM 68.0 °F - 30.9 °F 25% 30.06 in 10.0 mi West 9.2 mph - N/A   Clear
6:53 PM 64.9 °F - 30.9 °F 28% 30.07 in 10.0 mi West 6.9 mph - N/A   Clear
7:53 PM 61.0 °F - 33.1 °F 35% 30.10 in 10.0 mi South 11.5 mph - N/A   Clear
8:53 PM 54.0 °F - 36.0 °F 51% 30.12 in 10.0 mi South 5.8 mph - N/A   Clear
9:53 PM 50.0 °F - 34.0 °F 54% 30.13 in 10.0 mi South 8.1 mph - N/A   Clear
10:53 PM 46.0 °F 43.1 °F 34.0 °F 63% 30.13 in 10.0 mi SE 5.8 mph - N/A   Clear
11:53 PM 42.1 °F 39.2 °F 34.0 °F 73% 30.13 in 10.0 mi SE 4.6 mph - N/A   Clear